Benson, United Kingdom

8:55 AM BST on May 28, 2017 (GMT +0100)
Benson Air Base

Weather History for EGUB - March, 2013

Change the Weather History Date:

Tuesday, March 5, 2013

  Actual Average Record
Temperature  
Mean Temperature 42 °F -  
Max Temperature 60 °F 50 °F 60 °F (2013)
Min Temperature 24 °F 35 °F 17 °F (2001)
Degree Days  
Heating Degree Days 23    
Moisture  
Dew Point 35 °F    
Average Humidity 76    
Maximum Humidity 100    
Minimum Humidity 37    
Precipitation  
Precipitation 0.00 in - - ()
Sea Level Pressure  
Sea Level Pressure 29.64 in    
Wind  
Wind Speed 3 mph ()    
Max Wind Speed 10 mph    
Max Gust Speed -    
Visibility 5.0 miles    
Events Fog    
Averages and records for this station are not official NWS values.
T = Trace of Precipitation, MM = Missing Value Source: Averaged Metar Reports

Daily Weather History Graph

Daily Weather History Graph

Search for Another Location

Airport or City:

Trip Planner

Search our weather history database for the weather conditions in past years. The results will help you decide how hot, cold, wet, or windy it might be!

Date:

Astronomy

Mar. 05, 2013 Rise Set
Actual Time 6:40 AM GMT 5:51 PM GMT
Civil Twilight 6:07 AM GMT 6:25 PM GMT
Nautical Twilight 5:28 AM GMT 7:03 PM GMT
Astronomical Twilight 4:49 AM GMT 7:43 PM GMT
Moon 2:09 AM GMT (3/5) 10:44 AM GMT (3/5)
Length of Visible Light 12h 17m
Length of Day
11h 11m
Last Quarter, 43% of the Moon is Illuminated
Mar 5
Last Quarter
Mar 11
New
Mar 19
First Quarter
Mar 27
Full
Apr 3
Last Quarter

Hourly Weather History & Observations

Time (GMT) Temp. Windchill Dew Point Humidity Pressure Visibility Wind Dir Wind Speed Gust Speed Precip Events Conditions
12:50 AM 28.4 °F - 26.6 °F 93% 29.71 in 2.2 mi WNW 1.2 mph - N/A   Haze
1:50 AM 28.4 °F - 26.6 °F 93% 29.71 in 2.2 mi NW 1.2 mph - N/A   Clear
2:50 AM 27 °F - 26 °F 93% 29.72 in 0 mi Calm Calm - -  
2:50 AM 26.6 °F - 26.6 °F 100% 29.71 in - Calm Calm - N/A   Unknown
3:50 AM 26.6 °F - 26.6 °F 100% 29.68 in 0.9 mi North 1.2 mph - N/A Fog Fog
4:50 AM 26.6 °F - 24.8 °F 93% 29.68 in 1.2 mi North 2.3 mph - N/A Fog Fog
5:50 AM 26 °F - 25 °F 94% 29.70 in 0 mi Calm Calm - - Fog Partial Fog
5:50 AM 26.6 °F - 24.8 °F 93% 29.68 in 0.2 mi Calm Calm - N/A Fog Light Freezing Fog
6:50 AM 24.8 °F - 24.8 °F 100% 29.68 in 0.3 mi SW 1.2 mph - N/A Fog Light Freezing Fog
7:50 AM 28.4 °F - 28.4 °F 100% 29.68 in 1.6 mi Calm Calm - N/A   Partly Cloudy
8:50 AM 34 °F - 33 °F 95% 29.70 in 2 mi North 1.2 mph - -   Mist
8:50 AM 33.8 °F - 33.8 °F 100% 29.68 in 2.2 mi North 1.2 mph - N/A   Clear
9:50 AM 41.0 °F - 37.4 °F 87% 29.68 in 2.8 mi SW 2.3 mph - N/A   Haze
10:50 AM 48.2 °F - 41.0 °F 76% 29.65 in 3.7 mi South 4.6 mph - N/A   Haze
11:50 AM 54 °F - 40 °F 49% 29.66 in 6 mi South 5.8 mph - -   Haze
11:50 AM 53.6 °F - 41.0 °F 62% 29.65 in 5.6 mi South 5.8 mph - N/A   Haze
12:50 PM 57.2 °F - 41.0 °F 55% 29.62 in - South 9.2 mph - N/A   Clear
1:50 PM 59.0 °F - 41.0 °F 51% 29.59 in - SSE 6.9 mph - N/A   Clear
2:50 PM 59 °F - 40 °F 37% 29.60 in 16 mi SSE 10.4 mph - -   Scattered Clouds
2:50 PM 59.0 °F - 39.2 °F 48% 29.59 in 6.2 mi SSE 10.4 mph - N/A   Partly Cloudy
3:50 PM 59.0 °F - 41.0 °F 51% 29.56 in 6.2 mi SSE 6.9 mph - N/A   Partly Cloudy
4:50 PM 57.2 °F - 41.0 °F 55% 29.59 in 6.2 mi SE 9.2 mph - N/A   Partly Cloudy
5:50 PM 51 °F - 40 °F 56% 29.60 in 16 mi ESE 5.8 mph - -   Scattered Clouds
5:50 PM 51.8 °F - 39.2 °F 62% 29.59 in 6.2 mi ESE 5.8 mph - N/A   Partly Cloudy
6:50 PM 48.2 °F - 39.2 °F 71% 29.59 in - ESE 8.1 mph - N/A   Clear
7:50 PM 41.0 °F 36.4 °F 37.4 °F 87% 29.59 in - ESE 6.9 mph - N/A   Clear
8:50 PM 46 °F - 40 °F 74% 29.62 in 16 mi SE 5.8 mph - -   Mostly Cloudy
8:50 PM 46.4 °F 43.5 °F 41.0 °F 81% 29.59 in - SE 5.8 mph - N/A   Clear
9:50 PM 46.4 °F 42.9 °F 39.2 °F 76% 29.59 in - East 6.9 mph - N/A   Clear
10:50 PM 46.4 °F 41.9 °F 37.4 °F 71% 29.59 in - East 9.2 mph - N/A   Clear
11:50 PM 46 °F - 38 °F 63% 29.59 in 11 mi NW 2.3 mph - -   Mostly Cloudy
11:50 PM 46.4 °F - 37.4 °F 71% 29.56 in - NW 2.3 mph - N/A   Clear